Theta_e
355 356 358 357 371 369 366 364 356 358 358 354 353 355 355 354 361 366 350 347 346 349 347 348 350 350 348 348 350 345 352 353 352 352 351 352 354 354 353 355 353 353 352 353 345 348 348 346 353
357 358 358 365 373 366 366 360 361 356 354 350 351 353 354 360 352 351 349 346 350 349 348 348 350 350 349 349 350 350 353 353 352 352 352 351 353 354 353 353 353 353 352 349 351 351 349 348 348
359 359 366 374 356 361 365 358 357 354 352 353 353 350 351 353 348 348 348 348 350 349 349 348 350 350 350 352 351 352 353 353 352 352 353 352 353 353 353 353 353 353 352 348 348 350 352 354 350
359 360 364 366 352 352 359 355 353 354 352 350 352 354 347 345 347 347 348 349 349 350 350 346 351 354 354 354 353 353 353 354 354 353 353 355 352 353 353 353 353 353 352 352 351 352 351 352 346
359 366 371 350 351 350 354 353 353 354 353 351 350 353 349 344 346 348 349 349 349 350 349 349 350 352 353 353 353 353 353 353 352 353 354 353 353 354 353 353 353 353 351 352 352 352 351 350 346
354 359 370 353 350 349 348 350 350 353 351 351 353 351 348 345 347 348 347 349 350 349 348 350 351 352 352 353 354 353 354 353 352 352 353 352 352 352 353 354 353 353 353 352 351 349 349 349 346
360 357 356 352 350 350 349 346 348 350 351 351 349 354 347 345 348 348 349 349 349 347 346 347 350 352 352 351 352 353 353 352 352 352 349 349 349 352 353 354 354 353 354 352 352 351 350 348 344
354 363 355 354 351 351 347 346 346 348 351 348 348 355 350 345 346 347 348 348 347 348 345 345 347 348 349 350 353 353 353 353 354 354 353 354 352 353 353 351 355 354 352 352 351 350 346 343 341
346 370 357 355 353 350 345 346 345 346 348 349 349 349 344 342 343 345 345 346 346 346 344 344 347 349 349 351 348 349 354 354 348 346 347 346 351 350 352 352 351 354 353 352 349 344 341 337 338
358 364 350 350 351 351 346 346 347 348 348 352 350 346 342 340 344 345 345 346 347 346 345 346 347 348 350 351 348 345 351 350 348 351 349 349 352 351 352 351 352 351 353 350 343 342 343 342 344
356 352 352 350 351 350 349 347 346 346 349 349 349 343 340 340 341 343 346 345 346 347 345 348 348 349 349 351 348 350 351 349 348 351 350 352 352 351 350 350 351 350 351 351 339 341 348 350 347
349 349 349 351 351 351 352 347 348 347 347 346 344 341 341 340 340 341 343 343 343 345 346 348 349 349 350 348 351 352 353 350 352 352 351 352 351 351 350 349 349 348 350 351 349 347 349 349 350
345 348 348 351 351 352 351 350 349 347 346 344 343 341 341 340 339 337 338 342 343 343 347 346 349 347 351 349 349 351 352 351 350 353 350 351 351 351 350 349 350 348 349 348 352 350 347 346 344
344 348 347 349 352 352 354 348 351 348 345 345 342 342 342 340 339 339 339 342 343 345 348 348 351 351 351 352 352 349 350 348 350 351 349 350 351 350 353 350 350 349 350 348 349 348 348 348 347
346 348 346 349 352 350 340 348 352 350 346 347 345 344 344 342 341 342 342 344 345 346 346 349 349 351 351 354 351 344 348 350 351 349 350 352 354 352 352 349 346 346 350 349 349 345 346 343 343
347 348 351 349 353 348 345 352 347 351 348 348 347 346 346 345 343 343 342 344 345 347 347 347 348 351 352 352 346 349 351 351 350 351 354 355 351 349 352 347 346 345 349 351 348 348 345 344 343
346 353 349 347 346 352 353 359 354 352 350 349 348 347 346 346 345 345 345 346 346 347 348 347 348 349 353 351 354 350 352 350 349 349 350 353 353 352 348 350 346 344 349 350 349 349 349 349 348
346 350 349 343 338 339 343 354 351 352 352 350 349 349 349 347 346 345 345 345 346 346 346 346 347 348 349 348 352 352 351 351 350 350 350 352 352 354 348 351 346 346 349 350 349 350 351 349 350
343 339 340 344 342 339 341 345 354 351 352 352 351 350 349 348 347 345 345 344 344 344 346 346 347 347 348 347 350 355 354 352 350 352 351 354 352 354 350 353 348 350 350 350 351 350 351 351 349
333 335 341 344 342 344 337 341 350 352 348 352 353 352 351 350 348 348 345 343 342 346 347 348 347 348 350 353 352 352 353 353 353 353 352 355 353 354 356 349 350 350 351 351 351 352 352 351 349
330 332 334 344 342 343 336 346 351 350 347 346 349 351 352 351 349 349 347 343 344 347 348 351 347 348 348 349 351 351 354 352 351 347 350 354 356 355 355 353 352 352 351 350 350 352 352 350 351
327 329 330 331 334 339 338 349 352 345 344 348 346 348 350 351 350 349 347 344 345 347 349 351 346 352 349 348 355 355 355 354 350 346 343 355 357 357 356 351 354 353 352 353 350 350 352 351 351
328 329 329 329 331 334 338 339 351 347 346 351 346 348 347 351 351 349 348 346 344 346 349 352 350 354 353 350 354 356 355 355 352 341 345 353 355 356 356 355 356 355 353 353 352 352 354 353 352
330 329 329 330 330 333 334 337 345 347 348 341 337 340 345 348 351 351 348 346 345 346 349 350 355 355 357 358 354 356 358 354 357 352 350 353 355 356 353 355 354 355 350 353 353 354 352 353 354
332 330 331 331 331 332 333 339 343 340 338 337 338 336 337 344 353 352 350 347 346 345 347 349 355 358 358 361 360 354 355 359 355 354 352 357 356 356 355 355 355 352 355 355 352 353 355 353 356
331 330 330 334 332 331 333 334 336 333 339 340 341 340 343 341 352 352 352 348 347 346 347 348 355 359 360 358 362 362 357 360 360 357 358 358 352 353 357 353 355 348 353 356 356 355 353 355 355
330 331 330 330 329 328 329 331 334 336 338 341 345 347 349 347 348 352 350 348 348 347 348 349 355 359 360 362 360 363 363 361 358 358 356 354 356 352 352 353 354 352 353 356 353 352 354 356 353
331 331 329 329 332 332 334 340 342 340 338 341 348 351 355 353 349 352 352 350 350 348 349 350 355 360 361 362 362 363 364 363 361 359 359 356 354 354 353 354 356 354 354 356 356 354 353 355 356
332 330 328 329 332 331 329 337 339 342 342 344 348 356 356 354 351 353 352 351 349 349 349 351 357 360 362 361 361 362 362 363 363 362 361 360 353 359 356 355 356 356 355 355 355 355 355 354 352
330 327 327 328 331 331 333 345 339 339 345 348 353 355 357 355 354 354 353 351 350 349 349 350 354 360 360 358 359 362 361 361 363 361 361 359 360 356 357 355 357 358 354 356 355 355 354 355 355
Wind_Speed
14 13 11 4 3 3 5 4 10 10 8 11 13 15 19 12 7 7 16 14 22 19 16 16 17 16 16 17 16 16 15 14 12 9 10 10 10 10 11 11 12 11 13 16 17 16 17 18 15
14 11 6 4 3 5 6 14 6 8 13 14 10 12 15 17 13 16 13 21 21 19 18 16 18 18 18 17 16 15 14 13 12 9 8 9 8 9 9 10 12 13 15 15 16 16 15 16 16
11 9 3 4 5 7 8 16 10 13 13 8 5 13 6 6 8 4 21 22 20 20 19 19 20 19 18 16 16 14 12 11 11 9 8 8 7 8 8 10 12 13 14 15 15 15 13 13 13
6 3 5 4 13 15 19 13 13 13 9 7 11 10 6 5 5 10 21 18 17 19 19 21 19 17 17 15 15 13 11 9 8 8 6 7 6 7 8 9 11 12 13 14 14 13 12 12 12
7 5 5 11 12 13 18 15 11 9 12 13 10 9 7 1 14 18 18 20 20 17 19 19 19 17 16 15 14 12 10 8 7 5 5 5 5 5 7 9 11 12 12 12 13 12 11 10 10
8 5 4 10 12 11 8 16 11 17 12 10 15 12 8 11 16 17 17 23 25 23 20 18 18 17 15 13 12 11 9 8 7 5 4 4 5 4 6 8 10 11 12 12 11 10 10 9 8
11 1 12 8 12 10 8 9 12 13 16 14 16 11 13 15 16 16 18 18 13 26 23 19 17 15 14 12 11 10 9 8 6 5 4 3 5 5 6 7 9 11 11 11 10 9 9 8 7
7 3 6 2 12 10 7 10 9 8 17 20 18 7 17 21 20 16 15 11 14 22 23 20 18 15 14 12 12 10 9 8 7 7 6 6 5 6 7 9 9 10 10 10 9 9 9 8 6
6 4 7 11 15 9 10 12 11 14 10 17 15 12 29 29 20 11 8 14 11 23 23 22 18 17 17 15 13 11 10 8 8 7 9 7 7 7 9 10 10 10 9 9 8 8 8 7 7
4 4 14 17 18 9 12 15 10 10 11 20 22 28 35 30 21 12 8 11 11 12 24 22 22 19 17 18 14 13 11 9 8 8 9 8 8 10 10 10 11 10 10 8 7 7 7 7 4
7 10 17 15 12 8 15 9 9 10 13 18 24 28 28 30 24 15 11 11 20 14 10 18 22 19 18 17 9 14 13 13 11 10 9 8 7 7 9 12 11 10 10 8 7 6 6 9 8
8 10 12 11 10 7 8 7 5 4 15 22 24 28 26 26 22 24 21 20 15 20 19 18 17 11 15 14 15 14 17 16 16 14 9 9 6 7 11 10 12 6 9 13 9 8 4 7 15
11 7 9 11 7 11 6 4 7 14 19 24 25 25 25 24 28 29 27 25 27 28 25 24 26 19 18 14 17 10 17 18 14 15 12 11 8 8 10 10 11 11 10 9 11 10 4 4 2
9 1 6 10 9 11 12 8 10 14 20 26 24 24 23 24 29 31 32 31 32 22 34 22 29 24 17 15 13 10 10 7 16 18 10 12 9 8 7 9 11 13 9 14 7 10 6 3 4
25 21 31 12 13 8 22 17 7 14 18 23 25 21 20 23 30 28 29 26 26 26 23 28 21 18 17 13 14 12 8 5 5 7 10 10 8 6 5 8 10 12 11 10 8 10 8 5 4
26 9 9 12 15 13 20 14 29 15 19 22 22 21 21 22 27 27 25 24 23 25 22 18 19 20 20 15 14 12 9 11 11 10 10 10 9 6 6 8 8 10 11 8 12 6 8 10 11
2 10 22 11 11 19 12 16 28 23 19 19 21 21 20 21 24 28 27 26 29 24 26 24 23 24 21 19 16 17 12 12 11 11 11 10 8 7 7 11 11 14 10 9 11 9 9 12 15
6 11 22 3 5 3 7 20 17 19 20 19 19 20 19 20 21 27 27 25 23 24 23 25 26 24 26 24 20 14 12 11 10 11 10 12 7 9 11 9 12 13 11 10 11 11 12 9 14
20 16 14 18 19 18 8 0 17 14 19 17 19 18 20 20 21 27 27 26 24 26 25 27 25 23 30 25 21 16 15 16 16 14 15 14 8 7 10 10 12 15 14 12 10 10 8 10 6
14 15 1 12 19 22 15 4 8 6 12 19 18 20 19 20 19 19 26 25 25 24 25 27 22 26 29 25 21 19 19 19 17 17 16 18 9 9 9 9 15 18 15 12 13 11 8 6 8
16 14 16 7 17 25 15 10 17 1 19 5 12 17 19 20 19 20 21 25 26 24 26 26 27 27 27 20 19 20 15 13 10 14 12 14 12 11 10 9 11 17 16 15 13 11 6 6 7
14 13 15 15 10 13 9 4 4 10 21 6 7 11 16 18 18 19 19 26 26 25 27 27 31 25 27 27 21 22 20 17 21 13 26 22 15 13 12 11 9 13 14 13 13 12 10 9 5
12 14 11 14 14 16 17 7 8 12 11 13 13 12 13 18 19 19 19 26 28 28 27 27 31 27 26 29 24 19 18 15 15 12 17 14 13 15 15 12 11 10 13 11 14 14 13 10 5
11 12 15 13 12 11 16 6 11 6 18 11 9 10 12 16 19 17 24 26 26 28 29 27 30 30 26 28 30 22 16 21 10 20 21 18 15 14 16 13 15 14 13 9 14 11 13 10 9
14 14 10 8 9 9 20 10 9 23 16 8 6 2 7 12 19 17 20 18 25 26 30 29 30 29 29 25 27 30 24 18 17 14 17 20 14 17 19 18 18 18 15 10 16 15 12 12 10
12 14 7 10 8 8 6 3 13 6 14 8 8 7 4 7 19 19 18 19 25 25 30 29 32 31 29 31 25 25 29 22 18 16 18 20 17 23 21 21 21 19 19 16 13 14 15 15 12
9 10 16 13 9 9 7 1 15 15 13 9 11 8 9 13 18 20 19 22 25 25 28 31 32 33 33 29 27 24 23 24 22 21 19 17 14 22 21 25 22 19 19 19 17 16 15 14 12
7 8 9 6 8 8 8 12 8 12 10 10 13 8 7 11 11 18 15 20 26 28 27 31 32 35 32 30 27 25 23 23 24 21 19 18 16 11 17 17 20 17 18 20 19 17 18 16 14
5 11 12 13 9 9 8 5 12 10 8 9 11 9 5 5 7 19 21 24 24 26 27 29 29 31 28 28 25 25 24 23 23 22 23 19 21 10 15 19 18 20 20 20 19 21 18 20 18
6 7 9 8 6 11 10 6 19 6 11 9 9 7 6 8 12 8 8 7 13 22 22 23 29 30 30 26 24 25 23 23 23 24 21 24 21 21 18 20 20 20 22 22 23 24 19 17 17
Wind_Direction
178 188 190 185 230 215 126 93 102 118 108 77 66 84 90 45 49 107 136 155 147 142 147 146 146 146 143 141 136 133 123 122 119 109 95 86 85 84 80 81 80 86 92 89 90 100 108 111 106
191 197 215 246 230 110 85 128 109 89 98 113 72 93 79 63 75 120 118 148 140 144 144 145 147 150 145 143 136 130 133 129 123 112 98 90 89 85 78 80 87 90 99 99 100 107 106 110 113
233 232 277 224 53 83 102 108 108 105 117 101 98 69 54 90 72 108 139 144 142 146 142 151 147 150 152 149 142 139 139 135 128 124 112 97 89 83 85 85 92 98 101 100 113 109 108 107 110
240 259 246 272 73 65 122 130 135 129 132 88 115 85 84 353 96 140 139 140 145 141 143 146 145 149 150 152 150 148 149 141 133 128 115 105 92 85 91 96 105 107 108 108 110 114 114 108 111
229 267 268 91 76 78 124 123 140 132 127 136 143 112 94 18 109 133 147 148 141 140 142 147 147 150 148 151 151 153 157 153 143 140 132 121 106 95 97 104 112 116 117 113 116 120 121 119 120
22 330 286 85 98 96 78 131 126 132 127 144 107 114 131 153 130 142 148 161 155 154 147 150 153 155 155 158 159 161 166 164 157 160 149 143 131 106 105 112 121 123 123 122 120 124 126 124 122
161 42 23 64 87 100 103 76 104 131 154 152 133 121 129 159 163 154 184 205 174 155 145 152 158 158 162 165 163 172 178 178 176 172 176 166 160 141 138 135 127 135 132 129 131 131 131 129 120
163 184 207 217 94 95 101 90 103 99 95 124 151 154 161 162 161 159 181 217 197 169 144 154 159 165 167 173 177 183 193 195 193 200 206 190 184 175 162 151 147 141 144 148 149 150 151 152 147
149 192 81 44 94 110 122 95 71 88 122 144 170 143 149 150 153 167 201 202 183 151 155 162 164 171 178 179 182 184 194 197 198 205 208 198 197 206 180 167 163 152 151 159 163 164 167 169 162
257 229 63 68 99 111 99 95 121 125 117 95 92 112 135 147 149 156 206 155 121 189 161 155 167 176 172 172 184 184 192 192 191 199 213 193 219 199 188 170 162 160 164 169 172 172 181 165 182
260 25 82 78 72 110 101 119 153 136 123 125 134 140 144 151 154 173 197 196 181 182 160 157 197 174 174 184 189 181 189 193 201 201 209 205 200 189 172 174 172 172 171 173 172 185 185 192 190
185 69 64 79 103 118 104 128 117 125 114 126 141 148 153 159 165 173 187 189 185 182 188 175 181 145 182 189 184 199 195 200 197 196 190 210 211 189 169 196 188 175 201 188 187 196 232 229 213
28 44 100 101 127 118 121 84 93 103 122 127 143 154 161 166 172 176 187 189 196 192 201 177 176 184 188 178 194 208 207 209 183 184 183 205 205 209 215 192 150 179 204 195 206 200 196 191 210
335 270 75 119 126 98 75 6 332 123 137 137 153 164 168 175 176 183 197 185 192 199 184 183 175 166 175 179 213 205 171 186 185 190 177 193 213 213 163 186 199 200 198 215 227 170 188 172 245
5 347 2 157 135 109 60 346 279 155 150 149 160 175 175 179 185 186 198 182 181 183 185 180 165 165 177 179 206 195 184 234 263 185 192 200 208 201 195 217 210 212 204 206 214 180 180 230 254
39 356 335 136 143 138 96 267 269 197 160 163 168 174 179 186 190 197 194 187 189 189 182 189 185 174 184 191 174 187 205 207 232 182 184 218 212 196 223 215 204 209 195 209 191 172 197 222 232
18 272 286 169 177 159 148 213 252 162 173 175 176 179 184 188 193 193 196 205 187 193 179 185 184 181 183 191 184 199 217 204 203 214 220 217 225 206 211 216 202 199 199 195 164 182 202 222 222
235 187 243 274 118 244 237 161 155 157 167 181 182 182 187 192 199 193 202 194 201 184 181 179 181 186 188 192 186 201 223 204 221 214 226 229 224 200 193 212 208 191 198 188 188 205 217 226 242
201 281 327 11 338 324 288 332 147 166 168 181 185 191 190 197 194 201 193 190 199 183 182 177 183 185 181 181 188 207 208 210 212 215 224 199 189 195 182 193 185 188 198 191 194 187 226 225 234
298 288 341 46 323 293 276 345 143 117 189 177 188 187 197 191 197 192 186 198 193 189 179 175 189 174 175 175 184 206 211 209 217 224 235 200 177 181 193 178 174 184 184 195 194 202 227 243 223
282 285 286 170 229 255 255 60 73 10 340 203 192 194 190 191 195 182 191 194 188 188 175 175 186 184 182 183 191 210 214 229 239 220 210 221 184 184 197 188 180 187 180 186 187 204 222 254 258
281 324 340 324 308 280 246 124 1 140 263 305 213 196 188 189 192 182 188 187 195 185 178 178 186 187 186 191 198 208 207 206 207 273 247 213 175 190 202 191 170 179 186 204 197 199 200 216 231
302 310 317 290 280 282 273 269 124 188 271 264 203 198 209 180 186 191 186 187 201 185 180 182 182 190 192 195 210 214 215 226 172 202 269 248 195 196 202 193 183 187 191 191 191 197 201 200 208
276 277 261 248 246 262 266 261 125 189 228 186 147 193 190 194 180 193 178 186 192 188 183 187 183 190 196 193 207 214 213 228 175 171 205 223 198 202 203 205 194 188 207 210 197 187 201 207 210
245 264 279 240 228 243 14 66 164 217 201 84 109 287 226 196 172 184 174 183 182 193 183 186 183 189 196 200 200 213 214 228 231 198 205 215 183 194 195 199 203 197 207 214 200 204 202 210 216
326 310 311 327 291 325 121 263 141 229 94 66 79 329 1 281 172 177 171 177 177 193 182 184 183 187 195 201 208 209 217 217 216 216 227 213 209 201 199 192 208 206 204 211 205 206 206 210 213
327 303 355 314 312 303 306 109 128 87 78 68 60 32 6 304 172 168 178 176 176 188 184 185 183 186 191 199 207 211 213 214 217 219 226 228 245 194 209 191 196 202 208 214 211 208 213 213 203
227 342 308 308 283 288 2 71 86 65 51 64 61 41 22 331 181 163 182 175 176 182 189 187 185 183 191 195 202 211 214 215 219 224 221 216 227 186 180 203 195 197 203 207 207 211 211 212 203
336 311 312 313 282 314 289 95 117 115 82 55 71 60 51 329 209 176 177 174 179 183 188 187 182 180 188 196 201 208 214 216 219 226 219 214 217 218 173 198 201 196 206 210 210 220 211 213 210
339 297 270 285 290 292 308 53 356 11 87 80 88 79 63 19 340 335 76 61 159 180 182 192 185 179 185 199 207 204 208 214 212 216 221 212 213 215 209 195 204 205 212 213 213 220 226 216 213